Showing default

TURKSAT 5B, 50212

Orbit data source: Space-Track

TURKSAT 5B, 50212 is a payload satellite owned by Turksat (TR) in GEO that was launched on Sun, 19 Dec 2021 UTC via an FALCON 9 launch vehicle from the Air Force Eastern Test Range (AFETR). Payload-class satellites include a variety of spacecraft equipped with specific instruments for various scientific and technological missions. These include communications satellites like Starlink; space stations such as the ISS; scientific satellites like the Hubble; Earth observation satellites from companies like Planet Labs, Umbra, and HawkEye 360; GPS; miniature CubeSats for education and research; and military/defense satellites.

Not visible in the next 10 days
Identifier
50212, 2021-126A
Orbit
GEO
Country
Flag of UnknownUnknown / TURK
Related business
Manufacturer
ADS/Bremen
Mission
Operational Commercial Communications
Bus & Motor
EUROSTAR 3000EOR, EOR
Mass
4,500 kg wet, ~3,500 kg dry
Launch date (UTC)
2021-12-19 (4 years ago)
Launch vehicle
FALCON 9
Launch site
Air Force Eastern Test Range (AFETR)
Object type
Payload
Rocket body
Debris
Shape & HBR
Box + 2 Pan, 17.0 m
Radar Cross Section
42.919 m², Large (>1 m²)

Expand to show TLE details & history
Last TLE update: 18 hours ago

TLE from 18 hours ago
0 TURKSAT 5B
1 50212U 21126A   25291.06255506  .00000138  00000-0  00000-0 0  9992
2 50212   0.0764 338.0990 0002946 313.5809 159.6780  1.00272452 13879
Epoch: 2025-10-18T01:30Z
TLE epoch observation values (Epoch: 2025-10-18T01:30:04.757Z)
Latitude
0.04367°
Longitude
42.03157°
Altitude
35,797.479 km
Speed
3.074 km/s
True Right ascension
06h 05m 24s
True Declination
0° 02' 37"
Sunlit
Object was in daylight at epoch
Visualization orbit readout
Latitude
Unknown
Longitude
Unknown
Altitude
Unknown
Speed
Unknown
Apparent Right ascension
Unknown
Apparent Declination
Unknown
Sunlit
N/A
Visualization observer readout
Local Sidereal Time
14:40:36
Azimuth
Unknown
Elevation
Unknown
Doppler factor
Unknown
Orbital elements
Apogee altitude
35,799.9 km
Perigee altitude
35,775.056 km
Semi-major axis
42,165.615 km
Eccentricity
0.00029
Inclination
0.0764°
RAAN
338.099°
Arg. of periapsis
313.5809°
True anomaly
159.68972°
Mean anomaly
159.678°
Eccentric anomaly
159.68386°
Mean motion
0.25067 °/min
Orbital period
1,436.14 mins
BSTAR
0
Loading maneuver chart data...
Computing Atmospheric mass density...
Loading historical data...
Loading historical data...
Loading historical data...
Loading historical data...
Loading historical data...
Loading historical data...
Loading historical data...
Other satellites on launch #126 in the year 2021 (2021-12-19 UTC)

Documentation

Showing up to 5 results
|